Sand Point, AK

8:36 AM AKDT on May 22, 2018 (GMT -0800)
Sand Point

Weather History for PASD - September, 2013

Change the Weather History Date:

Sunday, September 15, 2013

  Actual Average Record
Temperature  
Mean Temperature 50 °F -  
Max Temperature 53 °F 50 °F 57 °F (1990)
Min Temperature 48 °F 44 °F 36 °F (1983)
Degree Days  
Heating Degree Days 14    
Moisture  
Dew Point 45 °F    
Average Humidity 81    
Maximum Humidity 93    
Minimum Humidity 67    
Precipitation  
Precipitation 0.00 in - - ()
Sea Level Pressure  
Sea Level Pressure 30.17 in    
Wind  
Wind Speed 17 mph (NNW)    
Max Wind Speed 24 mph    
Max Gust Speed 31 mph    
Visibility 10 miles    
Events      
Averages and records for this station are not official NWS values.
T = Trace of Precipitation, MM = Missing Value Source: NWS Daily Summary

Daily Weather History Graph

Daily Weather History Graph

Search for Another Location

Airport or City:

Astronomy

Sep. 15, 2013 Rise Set
Actual Time 8:15 AM AKDT 8:57 PM AKDT
Civil Twilight 7:38 AM AKDT 9:34 PM AKDT
Nautical Twilight 6:53 AM AKDT 10:18 PM AKDT
Astronomical Twilight 6:05 AM AKDT 11:06 PM AKDT
Moon 7:00 PM AKDT (9/15) 3:32 AM AKDT (9/15)
Length of Visible Light 13h 56m
Length of Day
12h 42m
Waxing Gibbous, 83% of the Moon is Illuminated
Sep 15
Waxing Gibbous
Sep 19
Full
Sep 26
Last Quarter
Oct 4
New
Oct 11
First Quarter

Hourly Weather History & Observations

Time (AKDT) Temp. Dew Point Humidity Pressure Visibility Wind Dir Wind Speed Gust Speed Precip Events Conditions
12:16 AM 51.8 °F 46.4 °F 82% 30.19 in 10.0 mi NW 21.9 mph 26.5 mph N/A   Scattered Clouds
12:36 AM 51.8 °F 46.4 °F 82% 30.19 in 10.0 mi NNW 20.7 mph 27.6 mph N/A   Clear
12:56 AM 50.0 °F 46.4 °F 87% 30.19 in 10.0 mi North 19.6 mph 31.1 mph N/A   Clear
1:16 AM 50.0 °F 46.4 °F 87% 30.19 in 10.0 mi NNW 24.2 mph 27.6 mph N/A   Clear
1:36 AM 50.0 °F 46.4 °F 87% 30.19 in 10.0 mi NNW 23.0 mph 28.8 mph N/A   Clear
1:56 AM 50.0 °F 46.4 °F 87% 30.20 in 10.0 mi NNW 17.3 mph 25.3 mph N/A   Clear
2:16 AM 50.0 °F 46.4 °F 87% 30.20 in 10.0 mi NNW 20.7 mph - N/A   Clear
2:36 AM 48.2 °F 46.4 °F 93% 30.20 in 10.0 mi NW 18.4 mph 26.5 mph N/A   Scattered Clouds
2:56 AM 48.2 °F 46.4 °F 93% 30.19 in 10.0 mi NNW 15.0 mph - N/A   Partly Cloudy
3:16 AM 48.2 °F 46.4 °F 93% 30.19 in 10.0 mi NNW 18.4 mph - N/A   Clear
3:36 AM 48.2 °F 46.4 °F 93% 30.19 in 10.0 mi NNW 17.3 mph - N/A   Clear
3:56 AM 48.2 °F 46.4 °F 93% 30.19 in 10.0 mi NNW 16.1 mph - N/A   Clear
4:16 AM 48.2 °F 46.4 °F 93% 30.20 in 10.0 mi NW 8.1 mph - N/A   Clear
4:36 AM 48.2 °F 44.6 °F 87% 30.19 in 10.0 mi NNW 16.1 mph - N/A   Clear
4:56 AM 48.2 °F 44.6 °F 87% 30.19 in 10.0 mi NNW 18.4 mph - N/A   Clear
5:16 AM 48.2 °F 44.6 °F 87% 30.19 in 10.0 mi North 15.0 mph - N/A   Clear
5:36 AM 48.2 °F 44.6 °F 87% 30.18 in 10.0 mi NNW 18.4 mph - N/A   Clear
5:56 AM 48.2 °F 44.6 °F 87% 30.20 in 10.0 mi NNW 16.1 mph - N/A   Clear
6:16 AM 48.2 °F 44.6 °F 87% 30.19 in 10.0 mi North 16.1 mph - N/A   Clear
6:36 AM 48.2 °F 44.6 °F 87% 30.20 in 10.0 mi North 13.8 mph - N/A   Clear
6:56 AM 48.2 °F 44.6 °F 87% 30.18 in 10.0 mi North 18.4 mph - N/A   Clear
7:16 AM 48.2 °F 44.6 °F 87% 30.19 in 10.0 mi NNW 13.8 mph 17.3 mph N/A   Clear
7:36 AM 48.2 °F 44.6 °F 87% 30.19 in 10.0 mi North 13.8 mph - N/A   Clear
7:56 AM 48.2 °F 44.6 °F 87% 30.20 in 10.0 mi NNW 11.5 mph - N/A   Scattered Clouds
8:16 AM 48.2 °F 44.6 °F 87% 30.19 in 10.0 mi North 15.0 mph 19.6 mph N/A   Scattered Clouds
8:36 AM 48.2 °F 44.6 °F 87% 30.19 in 10.0 mi NNW 21.9 mph - N/A   Scattered Clouds
8:56 AM 48.2 °F 44.6 °F 87% 30.19 in 10.0 mi NNW 17.3 mph - N/A   Scattered Clouds
9:16 AM 48.2 °F 44.6 °F 87% 30.19 in 10.0 mi NNW 21.9 mph - N/A   Scattered Clouds
9:36 AM 48.2 °F 44.6 °F 87% 30.20 in 10.0 mi NNW 15.0 mph - N/A   Scattered Clouds
9:56 AM 48.2 °F 44.6 °F 87% 30.19 in 10.0 mi NNW 15.0 mph - N/A   Scattered Clouds
10:16 AM 48.2 °F 44.6 °F 87% 30.20 in 10.0 mi North 16.1 mph - N/A   Scattered Clouds
10:36 AM 50.0 °F 44.6 °F 82% 30.20 in 10.0 mi NNW 12.7 mph - N/A   Scattered Clouds
10:56 AM 50.0 °F 44.6 °F 82% 30.20 in 10.0 mi NNW 16.1 mph - N/A   Scattered Clouds
11:16 AM 50.0 °F 44.6 °F 82% 30.20 in 10.0 mi North 17.3 mph - N/A   Scattered Clouds
11:36 AM 51.8 °F 44.6 °F 76% 30.19 in 10.0 mi NNW 16.1 mph - N/A   Scattered Clouds
11:56 AM 51.8 °F 44.6 °F 76% 30.19 in 10.0 mi North 15.0 mph - N/A   Partly Cloudy
12:16 PM 51.8 °F 44.6 °F 76% 30.20 in 10.0 mi North 12.7 mph - N/A   Partly Cloudy
12:36 PM 53.6 °F 44.6 °F 72% 30.19 in 10.0 mi NNW 20.7 mph - N/A   Partly Cloudy
12:56 PM 51.8 °F 44.6 °F 76% 30.19 in 10.0 mi North 13.8 mph - N/A   Partly Cloudy
1:16 PM 51.8 °F 44.6 °F 76% 30.18 in 10.0 mi NNW 16.1 mph - N/A   Partly Cloudy
1:36 PM 51.8 °F 44.6 °F 76% 30.18 in 10.0 mi North 13.8 mph - N/A   Partly Cloudy
1:56 PM 51.8 °F 46.4 °F 82% 30.17 in 10.0 mi North 13.8 mph - N/A   Scattered Clouds
2:16 PM 53.6 °F 44.6 °F 72% 30.17 in 10.0 mi NNW 15.0 mph - N/A   Scattered Clouds
2:36 PM 53.6 °F 46.4 °F 77% 30.17 in 10.0 mi North 12.7 mph 19.6 mph N/A   Scattered Clouds
2:56 PM 53.6 °F 46.4 °F 77% 30.17 in 10.0 mi North 15.0 mph - N/A   Scattered Clouds
3:16 PM 53.6 °F 46.4 °F 77% 30.16 in 10.0 mi North 13.8 mph - N/A   Scattered Clouds
3:36 PM 53.6 °F 44.6 °F 72% 30.16 in 10.0 mi North 16.1 mph 19.6 mph N/A   Scattered Clouds
3:56 PM 53.6 °F 46.4 °F 77% 30.16 in 10.0 mi North 13.8 mph - N/A   Scattered Clouds
4:16 PM 53.6 °F 46.4 °F 77% 30.16 in 10.0 mi North 13.8 mph - N/A   Scattered Clouds
4:36 PM 53.6 °F 44.6 °F 72% 30.15 in 10.0 mi NNW 16.1 mph - N/A   Scattered Clouds
4:56 PM 53.6 °F 44.6 °F 72% 30.15 in 10.0 mi NNW 15.0 mph - N/A   Scattered Clouds
5:16 PM 53.6 °F 44.6 °F 72% 30.14 in 10.0 mi North 16.1 mph 20.7 mph N/A   Scattered Clouds
5:36 PM 53.6 °F 44.6 °F 72% 30.14 in 10.0 mi NNW 13.8 mph - N/A   Scattered Clouds
5:56 PM 53.6 °F 44.6 °F 72% 30.14 in 10.0 mi NNW 12.7 mph - N/A   Scattered Clouds
6:16 PM 53.6 °F 44.6 °F 72% 30.13 in 10.0 mi NNW 13.8 mph - N/A   Scattered Clouds
6:36 PM 53.6 °F 42.8 °F 67% 30.12 in 10.0 mi NNW 15.0 mph - N/A   Scattered Clouds
6:56 PM 53.6 °F 44.6 °F 72% 30.12 in 10.0 mi NNW 15.0 mph - N/A   Scattered Clouds
7:16 PM 53.6 °F 42.8 °F 67% 30.12 in 10.0 mi NNW 15.0 mph - N/A   Scattered Clouds
7:36 PM 51.8 °F 44.6 °F 76% 30.12 in 10.0 mi NNW 16.1 mph - N/A   Scattered Clouds
7:56 PM 51.8 °F 44.6 °F 76% 30.12 in 10.0 mi North 12.7 mph - N/A   Scattered Clouds
8:16 PM 51.8 °F 44.6 °F 76% 30.12 in 10.0 mi NNW 15.0 mph - N/A   Clear
8:36 PM 50.0 °F 42.8 °F 76% 30.11 in 10.0 mi North 18.4 mph 23.0 mph N/A   Clear
8:56 PM 50.0 °F 42.8 °F 76% 30.11 in 10.0 mi North 10.4 mph - N/A   Clear
9:16 PM 48.2 °F 42.8 °F 82% 30.11 in 10.0 mi North 12.7 mph - N/A   Clear
9:36 PM 48.2 °F 42.8 °F 82% 30.12 in 10.0 mi NNW 12.7 mph - N/A   Clear
9:56 PM 48.2 °F 42.8 °F 82% 30.12 in 10.0 mi NNW 15.0 mph - N/A   Clear
10:16 PM 48.2 °F 42.8 °F 82% 30.11 in 10.0 mi North 11.5 mph - N/A   Clear
10:36 PM 48.2 °F 42.8 °F 82% 30.12 in 10.0 mi NNW 9.2 mph - N/A   Clear
10:56 PM 48.2 °F 42.8 °F 82% 30.12 in 10.0 mi NNW 13.8 mph - N/A   Clear
11:16 PM 48.2 °F 42.8 °F 82% 30.12 in 10.0 mi NW 11.5 mph - N/A   Clear
11:36 PM 48.2 °F 42.8 °F 82% 30.11 in 10.0 mi NNW 12.7 mph - N/A   Clear
11:56 PM 48.2 °F 42.8 °F 82% 30.11 in 10.0 mi NNW 11.5 mph - N/A   Clear